Weather in Berenzhak

Russia / Republic of Khakassia     54°08′05″N   89°28′19″E
temp.,
°C
wind,
m/s
gust,
m/s
humid.,
%
clouds,
%
prec.,
mm/h
press.,
hPa
HPBL,
m
22 january, sat
sat2201:00−21wsw119922 0.0 10359
04:00−22wsw1110021 0.0 10359
07:00−22wsw1110021 0.0 10369
10:00−20sw119942 0.0 103611
13:00−10ne11825 0.0 1032143
16:00−11ne11935 0.0 103215
19:00−19wsw1110049 0.0 10379
22:00−21sw2110060 0.0 103810
23 january, sun
sun2301:00−21sw219951 0.0 103810
04:00−21sw219830 0.0 103710
07:00−21sw21975 0.0 103810
10:00−18ssw2194100 0.0 103616
13:00−8s1175100 0.0 1032108
16:00−9nne1193100 0.0 103220
19:00−15wsw1198100 0.0 10349
22:00−16w1197100 0.0 103510
24 january, mon
mon2401:00−16wnw1198100 0.0 103510
04:00−15nnw1198100 0.0 103514
07:00−15n1198100 0.1 103624
10:00−15nnw119797 0.1 103739
13:00−12n1288100 0.1 1037344
16:00−12nne129282 0.0 103790
19:00−21wsw1110069 0.0 10429
22:00−22sw2110097 0.0 104410
25 january, tue
tue2501:00−21sw119988 0.0 104311
04:00−20sw119876 0.0 104211
07:00−18wsw1196100 0.1 104116
10:00−15ssw1195100 0.1 104052
13:00−12ne008998 0.2 1038255
16:00−11ene119293 0.1 1037171
19:00−19w1010097 0.1 10409
22:00−19sw1110082 0.1 104110
26 january, wed
wed2601:00−21sw1110092 0.1 10419
04:00−20sw1110092 0.0 104110
07:00−21sw119998 0.0 104110
10:00−18ssw119778 0.0 104025
13:00−11ese118636 0.0 1037172
16:00−11e119111 0.0 103672
19:00−20sw1110066 0.0 10399
22:00−21ssw2210078 0.0 104012